TimePDT,TemperatureF,Dew PointF,Humidity,Sea Level PressureIn,VisibilityMPH,Wind Direction,Wind SpeedMPH,Gust SpeedMPH,PrecipitationIn,Events,Conditions,WindDirDegrees,DateUTC
12:51 AM,72.0,28.9,20,29.96,10.0,NW,6.9,-,N/A,,Clear,320,2013-10-19 07:51:00
1:51 AM,71.1,25.0,18,29.96,10.0,WNW,5.8,-,N/A,,Clear,300,2013-10-19 08:51:00
2:51 AM,72.0,25.0,17,29.95,10.0,NW,8.1,-,N/A,,Clear,310,2013-10-19 09:51:00
3:51 AM,71.1,28.0,20,29.95,10.0,WNW,5.8,-,N/A,,Clear,300,2013-10-19 10:51:00
4:51 AM,73.0,23.0,15,29.95,10.0,WNW,4.6,-,N/A,,Clear,290,2013-10-19 11:51:00
5:51 AM,73.9,19.9,13,29.95,10.0,NW,3.5,-,N/A,,Clear,320,2013-10-19 12:51:00
6:51 AM,73.9,21.0,14,29.96,10.0,NW,3.5,-,N/A,,Clear,320,2013-10-19 13:51:00
7:51 AM,75.0,23.0,14,29.96,10.0,North,3.5,-,N/A,,Clear,10,2013-10-19 14:51:00
8:51 AM,78.1,19.9,11,29.98,10.0,Calm,Calm,-,N/A,,Clear,0,2013-10-19 15:51:00
9:51 AM,79.0,28.0,15,29.99,10.0,Calm,Calm,-,N/A,,Clear,0,2013-10-19 16:51:00
10:51 AM,79.0,35.1,20,29.99,10.0,Calm,Calm,-,N/A,,Clear,0,2013-10-19 17:51:00
11:51 AM,79.0,36.0,21,29.99,10.0,West,5.8,-,N/A,,Clear,270,2013-10-19 18:51:00
12:51 PM,79.0,37.0,22,29.97,10.0,WSW,5.8,-,N/A,,Clear,250,2013-10-19 19:51:00
1:51 PM,77.0,37.9,24,29.96,10.0,West,5.8,-,N/A,,Clear,260,2013-10-19 20:51:00
2:51 PM,78.1,44.1,30,29.95,10.0,West,4.6,-,N/A,,Clear,280,2013-10-19 21:51:00
3:51 PM,77.0,45.0,32,29.94,10.0,West,9.2,-,N/A,,Clear,270,2013-10-19 22:51:00
4:51 PM,71.1,35.1,27,29.95,10.0,West,11.5,-,N/A,,Clear,260,2013-10-19 23:51:00
5:51 PM,70.0,30.9,24,29.95,10.0,West,11.5,-,N/A,,Clear,260,2013-10-20 00:51:00
6:51 PM,69.1,27.0,21,29.96,10.0,West,8.1,-,N/A,,Clear,280,2013-10-20 01:51:00
7:51 PM,72.0,21.9,15,29.96,10.0,WNW,9.2,-,N/A,,Clear,290,2013-10-20 02:51:00
8:51 PM,70.0,23.0,17,29.96,10.0,WNW,11.5,-,N/A,,Clear,300,2013-10-20 03:51:00
9:51 PM,69.1,26.1,20,29.96,10.0,NW,10.4,-,N/A,,Clear,310,2013-10-20 04:51:00
10:51 PM,70.0,30.9,24,29.96,10.0,NW,11.5,-,N/A,,Clear,310,2013-10-20 05:51:00
11:51 PM,70.0,28.9,22,29.96,10.0,NW,8.1,-,N/A,,Clear,310,2013-10-20 06:51:00